Location: Narrabri
(30.3170°S, 149.7830°E)
Time: 18:00:30
(UTC+11:00)

N. Korean satellite - Visible Passes

Search period start: 22 January 2019 00:00
Search period end: 01 February 2019 00:00
Orbit: 458 x 509 km, 97.2° (Epoch: 20 January)

Date Brightness Start Highest point End Pass type
(mag) Time Alt. Az. Time Alt. Az. Time Alt. Az.
23 Jan 10.4 05:36:51 10° E 05:37:55 11° ESE 05:38:59 10° SE visible
26 Jan 9.7 05:54:31 10° ENE 05:57:09 20° ESE 05:59:48 10° SSE visible
30 Jan 9.8 05:49:32 10° ENE 05:51:53 17° ESE 05:54:14 10° SSE visible
